DW8400 Weather Reports


Display with metric or nautical units.
time (UTC)temp
F
wind
direction
speed
MPH
gust
MPH
rain 1hr
in
rain 24hr
in
rain mn
in
humidity
%
barometer
mb
20260510044516 60 291 0.0 0.0 0.00 0.00 0.00 97 1011.8
20260510044009 61 291 0.0 0.0 0.00 0.00 0.00 96 1011.8
20260510043509 61 291 0.0 0.0 0.00 0.00 0.00 96 1011.8
20260510043010 61 291 0.0 0.0 0.00 0.00 0.00 96 1011.8
20260510042508 61 291 0.0 0.0 0.00 0.00 0.00 96 1011.8
20260510042008 61 291 0.0 1.0 0.00 0.00 0.00 96 1011.8
20260510041512 61 291 0.0 1.0 0.00 0.00 0.00 96 1011.7
20260510041008 61 291 0.0 1.0 0.00 0.00 0.00 96 1011.7
20260510040508 61 291 0.0 1.0 0.00 0.00 0.00 96 1011.8
20260510040010 61 291 0.0 0.0 0.00 0.00 0.00 95 1011.8
20260510035507 61 291 0.0 0.0 0.00 0.00 0.00 95 1011.7
20260510035009 61 291 0.0 0.0 0.00 0.00 0.00 95 1011.8
20260510034506 61 291 0.0 0.0 0.00 0.00 0.00 95 1011.7
20260510034007 61 291 0.0 0.0 0.00 0.00 0.00 95 1011.7
20260510033505 61 291 0.0 0.0 0.00 0.00 0.00 95 1011.5
20260510033005 61 291 0.0 0.0 0.00 0.00 0.00 94 1011.5
20260510032507 61 291 0.0 0.0 0.00 0.00 0.00 94 1011.4
20260510032004 61 291 0.0 0.0 0.00 0.00 0.00 94 1011.4
20260510031503 62 291 0.0 0.0 0.00 0.00 0.00 94 1011.3
20260510031002 62 291 0.0 0.0 0.00 0.00 0.00 93 1011.2
20260510030501 62 291 0.0 0.0 0.00 0.00 0.00 93 1011.2
20260510030001 62 291 0.0 0.0 0.00 0.00 0.00 93 1011.2
20260510025600 62 291 0.0 0.0 0.00 0.00 0.00 92 1011.0
20260510025059 62 291 0.0 0.0 0.00 0.00 0.00 92 1010.9
20260510024559 62 291 0.0 0.0 0.00 0.00 0.00 92 1010.9
20260510024100 62 291 0.0 0.0 0.00 0.00 0.00 92 1010.9
20260510023558 62 291 0.0 0.0 0.00 0.00 0.00 91 1010.9
20260510023058 62 291 0.0 0.0 0.00 0.00 0.00 91 1010.8
20260510022558 63 291 0.0 0.0 0.00 0.00 0.00 91 1010.8
20260510022101 63 291 0.0 0.0 0.00 0.00 0.00 91 1010.7
20260510021600 63 291 0.0 0.0 0.00 0.00 0.00 90 1010.7
20260510021056 63 291 0.0 0.0 0.00 0.00 0.00 90 1010.7
20260510020556 63 291 0.0 0.0 0.00 0.00 0.00 89 1010.7
20260510020056 64 291 0.0 0.0 0.00 0.00 0.00 89 1010.6
20260510015556 64 291 0.0 0.0 0.00 0.00 0.00 89 1010.5
20260510015056 64 291 0.0 0.0 0.00 0.00 0.00 88 1010.5
20260510014556 65 291 0.0 0.0 0.00 0.00 0.00 87 1010.4
20260510014056 65 291 0.0 0.0 0.00 0.00 0.00 87 1010.4
20260510013556 66 291 0.0 0.0 0.00 0.00 0.00 87 1010.3
20260510013056 67 291 0.0 0.0 0.00 0.00 0.00 86 1010.3
20260510012558 67 291 0.0 0.0 0.00 0.00 0.00 86 1010.2
20260510012055 67 291 0.0 0.0 0.00 0.00 0.00 84 1010.2
20260510011600 68 291 0.0 1.0 0.00 0.00 0.00 84 1010.2
20260510011054 68 291 0.0 1.0 0.00 0.00 0.00 83 1010.1
20260510010554 69 291 0.0 0.0 0.00 0.00 0.00 82 1010.1
20260510010059 70 291 0.0 0.0 0.00 0.00 0.00 80 1010.0
20260510005554 70 291 0.0 1.0 0.00 0.00 0.00 79 1009.9
20260510005054 71 291 0.0 1.0 0.00 0.00 0.00 77 1009.8
20260510004554 72 291 0.0 1.0 0.00 0.00 0.00 77 1009.7
20260510004054 73 291 0.0 0.0 0.00 0.00 0.00 75 1009.7
20260510003554 74 291 0.0 0.0 0.00 0.00 0.00 70 1009.6
20260510003054 75 291 0.0 0.0 0.00 0.00 0.00 69 1009.6
20260510002553 76 291 0.0 1.0 0.00 0.00 0.00 67 1009.5
20260510002053 77 291 0.0 1.0 0.00 0.00 0.00 64 1009.4
20260510001553 77 291 0.0 1.0 0.00 0.00 0.00 62 1009.3
20260510001053 77 317 0.0 1.0 0.00 0.00 0.00 62 1009.3
20260510000553 78 327 0.0 1.0 0.00 0.00 0.00 62 1009.3
20260510000152 78 326 0.0 1.0 0.00 0.00 0.00 60 1009.3
20260509235552 79 312 0.0 3.0 0.00 0.00 0.00 59 1009.3
20260509235052 80 312 0.0 3.0 0.00 0.00 0.00 57 1009.3
20260509234559 80 260 0.0 7.0 0.00 0.00 0.00 56 1009.3
20260509234052 81 303 2.0 7.0 0.00 0.00 0.00 54 1009.2
20260509233551 81 264 0.0 5.0 0.00 0.00 0.00 52 1009.1
20260509233052 81 86 1.0 6.0 0.00 0.00 0.00 52 1009.1
20260509232551 81 281 0.0 7.0 0.00 0.00 0.00 53 1009.1
20260509232052 82 252 1.0 7.0 0.00 0.00 0.00 52 1009.2
20260509231552 82 262 1.0 4.0 0.00 0.00 0.00 52 1009.2
20260509231050 82 258 1.0 3.0 0.00 0.00 0.00 54 1009.1
20260509230551 82 274 1.0 5.0 0.00 0.00 0.00 51 1009.1
20260509230050 82 206 2.0 5.0 0.00 0.00 0.00 51 1009.1
20260509225550 82 255 0.0 5.0 0.00 0.00 0.00 53 1009.0
20260509225049 82 321 0.0 5.0 0.00 0.00 0.00 51 1009.0
20260509224549 82 260 1.0 7.0 0.00 0.00 0.00 52 1009.0
20260509224049 82 177 2.0 9.0 0.00 0.00 0.00 52 1009.0
20260509223550 82 240 3.0 9.0 0.00 0.00 0.00 51 1009.0
20260509223059 82 240 0.0 6.0 0.00 0.00 0.00 54 1008.9
20260509222549 82 33 1.0 6.0 0.00 0.00 0.00 52 1008.9
20260509222049 82 338 0.0 6.0 0.00 0.00 0.00 53 1008.8
20260509221550 82 206 3.0 6.0 0.00 0.00 0.00 52 1008.7
20260509221048 83 175 2.0 6.0 0.00 0.00 0.00 51 1008.7
20260509220549 82 155 1.0 8.0 0.00 0.00 0.00 53 1008.8
20260509220048 82 73 2.0 8.0 0.00 0.00 0.00 55 1008.7
20260509215548 82 234 1.0 6.0 0.00 0.00 0.00 55 1008.8
20260509215048 82 35 1.0 6.0 0.00 0.00 0.00 54 1008.7
20260509214547 83 40 1.0 5.0 0.00 0.00 0.00 55 1008.6
20260509214047 82 262 0.0 7.0 0.00 0.00 0.00 57 1008.7
20260509213547 82 342 3.0 8.0 0.00 0.00 0.00 56 1008.6
20260509213047 82 280 1.0 8.0 0.00 0.00 0.00 59 1008.7
20260509212549 82 57 3.0 6.0 0.00 0.00 0.00 56 1008.8
20260509212047 83 12 2.0 6.0 0.00 0.00 0.00 56 1008.8
20260509211547 83 255 2.0 7.0 0.00 0.00 0.00 56 1009.0
20260509211047 82 352 3.0 7.0 0.00 0.00 0.00 57 1009.0
20260509210546 83 32 2.0 6.0 0.00 0.00 0.00 57 1009.0
20260509210052 83 52 1.0 5.0 0.00 0.00 0.00 56 1009.1
20260509205545 84 234 2.0 5.0 0.00 0.00 0.00 54 1009.1
20260509205049 83 333 1.0 5.0 0.00 0.00 0.00 57 1009.1
20260509204552 83 272 2.0 8.0 0.00 0.00 0.00 56 1009.1
20260509204046 82 341 4.0 8.0 0.00 0.00 0.00 58 1009.1
20260509203545 83 79 1.0 6.0 0.00 0.00 0.00 56 1009.2
20260509203045 83 251 3.0 10.0 0.00 0.00 0.00 54 1009.2
20260509202545 83 146 5.0 10.0 0.00 0.00 0.00 56 1009.4
20260509202045 83 120 2.0 7.0 0.00 0.00 0.00 57 1009.4
20260509201548 83 188 2.0 6.0 0.00 0.00 0.00 58 1009.6
20260509201043 83 262 0.0 8.0 0.00 0.00 0.00 54 1009.7
20260509200543 83 134 3.0 8.0 0.00 0.00 0.00 56 1009.6
20260509200059 83 116 3.0 8.0 0.00 0.00 0.00 55 1009.7
20260509195543 82 189 2.0 8.0 0.00 0.00 0.00 57 1009.7
20260509195043 84 230 2.0 5.0 0.00 0.00 0.00 54 1009.6
20260509194544 83 272 1.0 5.0 0.00 0.00 0.00 55 1009.6
20260509194043 83 246 0.0 5.0 0.00 0.00 0.00 54 1009.7
20260509193542 83 262 1.0 8.0 0.00 0.00 0.00 54 1009.7
20260509193043 83 157 3.0 8.0 0.00 0.00 0.00 53 1009.7
20260509192542 83 331 2.0 8.0 0.00 0.00 0.00 52 1009.7
20260509192042 84 88 2.0 7.0 0.00 0.00 0.00 51 1009.7
20260509191542 84 229 3.0 7.0 0.00 0.00 0.00 53 1009.7
20260509191041 84 96 2.0 7.0 0.00 0.00 0.00 52 1009.8
20260509190541 84 252 1.0 5.0 0.00 0.00 0.00 54 1009.8
20260509190041 84 227 1.0 7.0 0.00 0.00 0.00 55 1009.7
20260509185541 84 262 0.0 7.0 0.00 0.00 0.00 53 1009.8
20260509185040 85 253 1.0 4.0 0.00 0.00 0.00 52 1009.9
20260509184554 84 274 1.0 4.0 0.00 0.00 0.00 55 1009.9
20260509184037 83 296 0.0 5.0 0.00 0.00 0.00 55 1009.9
20260509183536 83 275 1.0 6.0 0.00 0.00 0.00 54 1010.0
20260509183036 83 149 2.0 6.0 0.00 0.00 0.00 58 1010.0
20260509182536 82 168 1.0 9.0 0.00 0.00 0.00 61 1010.0
20260509182035 82 8 2.0 9.0 0.00 0.00 0.00 57 1010.0
20260509181541 82 67 2.0 6.0 0.00 0.00 0.00 58 1010.0
20260509181034 83 287 0.0 3.0 0.00 0.00 0.00 57 1010.1
20260509180533 80 286 1.0 6.0 0.00 0.00 0.00 60 1010.2
20260509180032 81 2 3.0 6.0 0.00 0.00 0.00 59 1010.2
20260509175531 80 250 0.0 7.0 0.00 0.00 0.00 63 1010.3
20260509175033 80 357 2.0 7.0 0.00 0.00 0.00 61 1010.2
20260509174536 80 66 2.0 5.0 0.00 0.00 0.00 62 1010.3
20260509174030 80 248 0.0 5.0 0.00 0.00 0.00 62 1010.3
20260509173529 80 75 3.0 5.0 0.00 0.00 0.00 64 1010.4
20260509173029 79 331 1.0 6.0 0.00 0.00 0.00 64 1010.4
20260509172529 80 319 2.0 6.0 0.00 0.00 0.00 62 1010.4
20260509172028 80 296 0.0 5.0 0.00 0.00 0.00 66 1010.4
20260509171532 79 275 1.0 4.0 0.00 0.00 0.00 66 1010.4
20260509171026 79 332 1.0 4.0 0.00 0.00 0.00 67 1010.4
20260509170526 79 46 1.0 4.0 0.00 0.00 0.00 67 1010.5
20260509170024 78 345 0.0 4.0 0.00 0.00 0.00 69 1010.5
20260509165527 78 134 1.0 6.0 0.00 0.00 0.00 69 1010.5
20260509165023 78 278 1.0 6.0 0.00 0.00 0.00 68 1010.5
20260509164524 78 100 1.0 7.0 0.00 0.00 0.00 69 1010.5
20260509164023 78 6 2.0 7.0 0.00 0.00 0.00 67 1010.5
20260509163529 77 296 0.0 5.0 0.00 0.00 0.00 69 1010.4
20260509163024 77 292 1.0 6.0 0.00 0.00 0.00 69 1010.4
20260509162521 77 347 0.0 5.0 0.00 0.00 0.00 70 1010.5
20260509162020 76 54 0.0 6.0 0.00 0.00 0.00 69 1010.5
20260509161522 76 320 1.0 6.0 0.00 0.00 0.00 73 1010.4
20260509161018 76 338 2.0 7.0 0.00 0.00 0.00 71 1010.5
20260509160517 76 315 2.0 7.0 0.00 0.00 0.00 71 1010.5
20260509160019 76 38 3.0 7.0 0.00 0.00 0.00 71 1010.4
20260509155515 76 320 2.0 7.0 0.00 0.00 0.00 71 1010.4
20260509155018 76 343 3.0 7.0 0.00 0.00 0.00 71 1010.4
20260509154516 76 324 0.0 4.0 0.00 0.00 0.00 70 1010.4
20260509154012 76 330 1.0 6.0 0.00 0.00 0.00 74 1010.4
20260509153513 75 286 1.0 7.0 0.00 0.00 0.00 72 1010.3
20260509153027 75 329 1.0 7.0 0.00 0.00 0.00 70 1010.3
20260509152510 74 316 0.0 4.0 0.00 0.00 0.00 74 1010.2
20260509152017 74 319 2.0 5.0 0.00 0.00 0.00 72 1010.2
20260509151509 74 317 0.0 5.0 0.00 0.00 0.00 74 1010.2
20260509151006 73 315 1.0 3.0 0.00 0.00 0.00 74 1010.3
20260509150507 73 333 1.0 3.0 0.00 0.00 0.00 75 1010.3
20260509150007 73 331 1.0 5.0 0.00 0.00 0.00 75 1010.3
20260509145506 73 323 1.0 5.0 0.00 0.00 0.00 76 1010.3
20260509145008 72 340 0.0 3.0 0.00 0.00 0.00 77 1010.4
20260509144516 72 324 1.0 4.0 0.00 0.00 0.00 77 1010.5
20260509144010 72 313 1.0 4.0 0.00 0.00 0.00 78 1010.5
20260509143504 72 307 0.0 3.0 0.00 0.00 0.00 77 1010.6
20260509143004 72 354 1.0 3.0 0.00 0.00 0.00 78 1010.7
20260509142508 72 352 1.0 2.0 0.00 0.00 0.00 78 1010.7
20260509142003 72 296 0.0 2.0 0.00 0.00 0.00 77 1010.6
20260509141504 72 293 0.0 2.0 0.00 0.00 0.00 80 1010.6
20260509141003 72 310 0.0 1.0 0.00 0.00 0.00 80 1010.7
20260509140503 72 298 0.0 1.0 0.00 0.00 0.00 78 1010.8
20260509140003 72 298 0.0 1.0 0.00 0.00 0.00 76 1010.8
20260509135502 71 276 0.0 2.0 0.00 0.00 0.00 78 1010.9
20260509135104 71 276 0.0 3.0 0.00 0.00 0.00 78 1010.8
20260509134613 71 225 1.0 3.0 0.00 0.00 0.00 77 1010.7
20260509134102 70 291 0.0 2.0 0.00 0.00 0.00 80 1010.7
20260509133556 70 270 0.0 2.0 0.00 0.00 0.00 81 1010.7
20260509133055 69 270 0.0 2.0 0.00 0.00 0.00 84 1010.7
20260509132554 68 269 0.0 2.0 0.00 0.00 0.00 84 1010.7
20260509132056 67 267 0.0 2.0 0.00 0.00 0.00 84 1010.6
20260509131551 66 254 0.0 2.0 0.00 0.00 0.00 86 1010.7
20260509131049 65 295 0.0 1.0 0.00 0.00 0.00 89 1010.7
20260509130548 64 300 0.0 1.0 0.00 0.00 0.00 91 1010.6
20260509130057 64 302 0.0 1.0 0.00 0.00 0.00 90 1010.5
20260509125547 63 298 0.0 1.0 0.00 0.00 0.00 94 1010.7
20260509125045 62 310 0.0 1.0 0.00 0.00 0.00 96 1010.6
20260509124546 61 298 0.0 0.0 0.00 0.00 0.00 96 1010.6
20260509124047 60 295 0.0 1.0 0.00 0.00 0.00 95 1010.6
20260509123548 59 295 0.0 1.0 0.00 0.00 0.00 95 1010.6
20260509123101 59 295 0.0 1.0 0.00 0.00 0.00 95 1010.5
20260509122544 59 295 0.0 1.0 0.00 0.00 0.00 98 1010.5
20260509122043 58 295 0.0 1.0 0.00 0.00 0.00 97 1010.4
20260509121601 58 295 0.0 0.0 0.00 0.00 0.00 97 1010.3
20260509121048 58 295 0.0 0.0 0.00 0.00 0.00 97 1010.2
20260509120543 57 295 0.0 0.0 0.00 0.00 0.00 98 1010.1
20260509120043 57 295 0.0 0.0 0.00 0.00 0.00 98 1010.0
20260509115544 57 295 0.0 0.0 0.00 0.00 0.00 99 1010.0
20260509115042 56 295 0.0 0.0 0.00 0.00 0.00 99 1009.9
20260509114545 55 295 0.0 0.0 0.00 0.00 0.00 99 1009.9
20260509114044 54 295 0.0 0.0 0.00 0.00 0.00 98 1009.8
20260509113543 54 295 0.0 0.0 0.00 0.00 0.00 98 1009.7
20260509113041 54 295 0.0 0.0 0.00 0.00 0.00 98 1009.7
20260509112540 54 295 0.0 0.0 0.00 0.00 0.00 98 1009.6
20260509112041 54 295 0.0 0.0 0.00 0.00 0.00 98 1009.5
20260509111557 54 295 0.0 0.0 0.00 0.00 0.00 98 1009.6
20260509111042 54 295 0.0 0.0 0.00 0.00 0.00 98 1009.5
20260509110539 54 295 0.0 0.0 0.00 0.00 0.00 98 1009.4
20260509110039 54 295 0.0 0.0 0.00 0.00 0.00 98 1009.3
20260509105538 54 295 0.0 0.0 0.00 0.00 0.00 98 1009.3
20260509105038 54 295 0.0 0.0 0.00 0.00 0.00 98 1009.2
20260509104544 54 295 0.0 0.0 0.00 0.00 0.00 98 1009.0
20260509104037 54 295 0.0 0.0 0.00 0.00 0.00 98 1009.0
20260509103537 54 295 0.0 0.0 0.00 0.00 0.00 97 1008.9
20260509103047 55 295 0.0 0.0 0.00 0.00 0.00 98 1008.9
20260509102536 55 295 0.0 0.0 0.00 0.00 0.00 98 1009.0
20260509102036 55 295 0.0 0.0 0.00 0.00 0.00 97 1009.0
20260509101601 55 295 0.0 0.0 0.00 0.00 0.00 97 1008.9
20260509101034 55 295 0.0 0.0 0.00 0.00 0.00 97 1008.9
20260509100536 55 295 0.0 0.0 0.00 0.00 0.00 97 1008.9
20260509100040 55 295 0.0 1.0 0.00 0.00 0.00 97 1008.8
20260509095533 55 295 0.0 1.0 0.00 0.00 0.00 97 1008.8
20260509095034 56 295 0.0 1.0 0.00 0.00 0.00 97 1008.6
20260509094537 56 295 0.0 1.0 0.00 0.00 0.00 97 1008.6
20260509094031 56 295 0.0 0.0 0.00 0.00 0.00 97 1008.8
20260509093532 56 295 0.0 0.0 0.00 0.00 0.00 97 1008.9
20260509093031 56 295 0.0 0.0 0.00 0.00 0.00 96 1009.0
20260509092529 56 295 0.0 1.0 0.00 0.00 0.00 96 1009.1
20260509092031 56 295 0.0 1.0 0.00 0.00 0.00 96 1009.3
20260509091537 57 295 0.0 1.0 0.00 0.00 0.00 96 1009.3
20260509091027 57 295 0.0 0.0 0.00 0.00 0.00 97 1009.3
20260509090527 57 295 0.0 0.0 0.00 0.00 0.00 96 1009.2
20260509090026 57 295 0.0 0.0 0.00 0.00 0.00 97 1009.1
20260509085526 57 295 0.0 1.0 0.00 0.00 0.00 97 1009.0
20260509085026 57 295 0.0 1.0 0.00 0.00 0.00 97 1008.8
20260509084526 57 295 0.0 0.0 0.00 0.00 0.00 96 1008.7
20260509084028 57 294 0.0 0.0 0.00 0.00 0.00 96 1008.6
20260509083525 57 295 0.0 1.0 0.00 0.00 0.00 96 1008.5
20260509083025 57 295 0.0 1.0 0.00 0.00 0.00 96 1008.6
20260509082526 57 296 0.0 0.0 0.00 0.00 0.00 96 1008.6
20260509082025 57 296 0.0 1.0 0.00 0.00 0.00 96 1008.6
20260509081527 58 296 0.0 1.0 0.00 0.00 0.00 96 1008.7
20260509081026 57 296 0.0 1.0 0.00 0.00 0.00 96 1008.8
20260509080523 58 296 0.0 1.0 0.00 0.00 0.00 95 1008.8
20260509080026 58 296 0.0 1.0 0.00 0.00 0.00 95 1009.0
20260509075523 58 296 0.0 1.0 0.00 0.00 0.00 94 1009.1
20260509075023 58 296 0.0 1.0 0.00 0.00 0.00 94 1009.1
20260509074536 58 296 0.0 0.0 0.00 0.00 0.00 93 1009.1
20260509074022 59 296 0.0 0.0 0.00 0.00 0.00 92 1009.0
20260509073522 59 296 0.0 0.0 0.00 0.00 0.00 91 1008.9
20260509073022 59 296 0.0 0.0 0.00 0.00 0.00 91 1008.9
20260509072523 59 296 0.0 0.0 0.00 0.00 0.00 91 1008.8
20260509072021 60 296 0.0 0.0 0.00 0.00 0.00 91 1008.8
20260509071521 60 296 0.0 1.0 0.00 0.00 0.00 91 1008.7
20260509071021 60 296 0.0 1.0 0.00 0.00 0.00 90 1008.8
20260509070520 61 296 0.0 2.0 0.00 0.00 0.00 89 1008.9
20260509070021 62 296 0.0 2.0 0.00 0.00 0.00 88 1008.9
20260509065520 62 295 0.0 1.0 0.00 0.00 0.00 87 1008.9
20260509065021 62 284 0.0 2.0 0.00 0.00 0.00 87 1008.9
20260509064519 62 287 0.0 2.0 0.00 0.00 0.00 87 1008.8
20260509064022 61 251 0.0 2.0 0.00 0.00 0.00 88 1008.7
20260509063517 61 270 0.0 2.0 0.00 0.00 0.00 88 1008.6
20260509063026 61 286 0.0 1.0 0.00 0.00 0.00 88 1008.6
20260509062521 61 286 0.0 1.0 0.00 0.00 0.00 89 1008.5
20260509062020 61 297 0.0 1.0 0.00 0.00 0.00 88 1008.4
20260509061517 61 290 0.0 1.0 0.00 0.00 0.00 88 1008.5
20260509061025 61 290 0.0 2.0 0.00 0.00 0.00 88 1008.5
20260509060516 61 286 0.0 3.0 0.00 0.00 0.00 88 1008.4
20260509060018 61 299 0.0 3.0 0.00 0.00 0.00 89 1008.1
20260509055515 61 276 0.0 5.0 0.00 0.00 0.00 90 1008.3
20260509055013 60 300 0.0 5.0 0.00 0.00 0.00 91 1008.5
20260509054511 59 277 0.0 1.0 0.00 0.00 0.00 93 1008.6
20260509054010 59 254 0.0 3.0 0.00 0.00 0.00 93 1008.7
20260509053509 58 253 0.0 3.0 0.00 0.00 0.00 94 1008.7
20260509053008 58 272 1.0 2.0 0.00 0.00 0.00 94 1008.8
20260509052507 58 272 0.0 2.0 0.00 0.00 0.00 94 1009.4
20260509052005 58 304 0.0 1.0 0.00 0.00 0.00 94 1009.5
20260509051505 58 304 0.0 0.0 0.00 0.00 0.00 94 1009.7
20260509051004 58 304 0.0 1.0 0.00 0.00 0.00 94 1010.1
20260509050504 58 304 0.0 1.0 0.00 0.00 0.00 94 1009.9
20260509050003 57 304 0.0 0.0 0.00 0.00 0.00 94 1010.2
20260509045502 57 303 0.0 0.0 0.00 0.00 0.00 94 1010.4
20260509045002 57 303 0.0 1.0 0.00 0.00 0.00 94 1010.6